This demonstration page uses our WeatherBlox Daily Observations layout. Learn more.

Hourly Observations for August 16, 2016

Temp ( °F °C ) Dew Point ( °F °C ) Humidity (%) Winds ( mph kmh ) Pressure ( in mb ) Visibility ( mi km ) Precip ( " mm )
12:15 am 00:15 Clear 71 21.5 64 17.5 78 78 SE 9 15 29.94 1014 10 16.09344 0 0
12:35 am 00:35 Clear 71 21.9 63 17.3 75 75 SSE 10 17 29.94 1014 10 16.09344 0 0
12:55 am 00:55 Clear 71 21.8 63 17.3 76 76 SSE 13 20 29.94 1014 10 16.09344 0 0
1:15 am 01:15 Clear with Nearby Thunderstorms 71 21.6 64 17.5 78 78 SSE 10 17 29.94 1014 10 16.09344 0 0
1:35 am 01:35 Clear 70 21 64 17.5 81 81 NE 7 11 29.94 1014 10 16.09344 0 0
1:55 am 01:55 Clear 67 19.6 63 17.4 87 87 ESE 6 9 29.97 1015 10 16.09344 0 0
2:15 am 02:15 Clear 69 20.6 64 17.6 83 83 ENE 7 11 29.94 1014 10 16.09344 0 0
2:35 am 02:35 Clear 68 20.2 63 17.3 84 84 SSW 6 9 29.94 1014 10 16.09344 0 0
2:55 am 02:55 Clear 67 19.4 63 17.2 87 87 SSE 3 6 29.97 1015 10 16.09344 0 0
3:15 am 03:15 Clear 67 19.4 63 17.2 87 87 ESE 5 7 29.97 1015 10 16.09344 0 0
3:35 am 03:35 Clear 67 19.4 64 17.5 89 89 ESE 7 11 29.97 1015 10 16.09344 0 0
3:55 am 03:55 Clear 67 19.5 64 17.5 88 88 ESE 9 15 29.97 1015 10 16.09344 0 0
4:15 am 04:15 Clear 67 19.7 64 17.5 87 87 SE 12 19 29.94 1014 10 16.09344 0 0
4:35 am 04:35 Clear 67 19.5 63 17.1 86 86 SE 12 19 29.94 1014 10 16.09344 0 0
4:55 am 04:55 Clear 67 19.3 63 17.1 87 87 SSE 10 17 29.94 1014 10 16.09344 0 0
5:15 am 05:15 Clear 66 18.8 63 17 89 89 WNW 7 11 29.94 1014 10 16.09344 0 0
5:35 am 05:35 Clear 65 18.5 63 17 91 91 Calm 29.94 1014 10 16.09344 0 0
5:55 am 05:55 Clear 64 17.9 62 16.6 92 92 Calm 29.94 1014 10 16.09344 0 0
6:15 am 06:15 Clear 63 17.1 61 16.1 94 94 Calm 29.94 1014 10 16.09344 0 0
6:35 am 06:35 Clear 63 17.2 62 16.4 95 95 Calm 29.97 1015 7 11.265408 0 0
6:55 am 06:55 Sunny with Mist and Fog 62 16.4 60 15.4 94 94 Calm 29.97 1015 4 6.437376 0 0
7:15 am 07:15 Mostly Cloudy with Mist and Fog 61 16 59 15.2 95 95 Calm 30 1016 1.75 2.816352 0 0
7:35 am 07:35 Sunny 62 16.5 60 15.6 94 94 W 5 7 30 1016 10 16.09344 0 0
7:55 am 07:55 Sunny 63 17.2 61 16.2 94 94 WNW 3 6 29.97 1015 7 11.265408 0 0
8:15 am 08:15 Sunny 64 18 62 16.7 92 92 WNW 5 7 29.97 1015 10 16.09344 0 0
8:35 am 08:35 Sunny 66 18.8 63 17.4 92 92 WNW 3 6 29.97 1015 10 16.09344 0 0
8:55 am 08:55 Sunny 67 19.6 64 17.9 90 90 NNW 5 7 29.97 1015 10 16.09344 0 0
9:15 am 09:15 Sunny 69 20.6 65 18.2 86 86 NNE 7 11 29.94 1014 10 16.09344 0 0
9:35 am 09:35 Sunny 71 21.8 65 18.5 82 82 N 10 17 29.94 1014 10 16.09344 0 0
9:55 am 09:55 Sunny 73 22.5 65 18.5 78 78 N 7 11 29.94 1014 10 16.09344 0 0
10:15 am 10:15 Sunny 74 23.1 66 18.7 76 76 N 10 17 29.94 1014 10 16.09344 0 0
10:35 am 10:35 Sunny 74 23.6 66 18.8 75 75 NNE 8 13 29.94 1014 10 16.09344 0 0
10:55 am 10:55 Sunny 75 24.1 66 18.9 73 73 N 7 11 29.94 1014 10 16.09344 0 0
11:15 am 11:15 Sunny 76 24.7 66 19.1 71 71 N 5 7 29.94 1014 10 16.09344 0 0
11:35 am 11:35 Sunny 78 25.7 68 20 71 71 N 9 15 29.94 1014 10 16.09344 0 0
11:55 am 11:55 Sunny 79 26 67 19.7 68 68 NNE 7 11 29.94 1014 10 16.09344 0 0
12:15 pm 12:15 Sunny 80 26.4 67 19.6 66 66 NNW 8 13 29.94 1014 10 16.09344 0 0
12:35 pm 12:35 Sunny 80 26.9 67 19.7 65 65 N 8 13 29.91 1013 10 16.09344 0 0
12:55 pm 12:55 Sunny 81 27.2 68 20.1 65 65 N 8 13 29.91 1013 10 16.09344 0 0
1:15 pm 13:15 Sunny 82 27.5 67 19.2 61 61 N 9 15 29.88 1012 10 16.09344 0 0
1:35 pm 13:35 Sunny 82 28 67 19.5 60 60 N 8 13 29.88 1012 10 16.09344 0 0
1:55 pm 13:55 Sunny 83 28.5 67 19.4 58 58 N 5 7 29.88 1012 10 16.09344 0 0
2:15 pm 14:15 Sunny 84 29 69 20.6 61 61 N 3 6 29.88 1012 10 16.09344 0 0
2:35 pm 14:35 Sunny 84 29 67 19.6 57 57 NNE 6 9 29.88 1012 10 16.09344 0 0
2:55 pm 14:55 Sunny 85 29.4 67 19.5 55 55 NNE 7 11 29.88 1012 10 16.09344 0 0
3:15 pm 15:15 Sunny 85 29.6 67 19.4 54 54 NE 6 9 29.88 1012 10 16.09344 0 0
3:35 pm 15:35 Sunny 86 29.8 65 18.6 51 51 NNE 6 9 29.88 1012 10 16.09344 0 0
3:55 pm 15:55 Sunny 86 30.2 68 19.9 54 54 ENE 8 13 29.88 1012 10 16.09344 0 0
4:15 pm 16:15 Sunny 86 30.1 65 18.5 50 50 ENE 7 11 29.88 1012 10 16.09344 0 0
4:35 pm 16:35 Sunny 86 30 65 18.1 49 49 E 9 15 29.88 1012 10 16.09344 0 0
4:55 pm 16:55 Sunny 86 29.9 65 18.1 49 49 ENE 8 13 29.88 1012 10 16.09344 0 0
5:15 pm 17:15 Sunny 86 30 65 18.4 50 50 E 7 11 29.88 1012 10 16.09344 0 0
5:35 pm 17:35 Sunny 85 29.7 66 18.9 52 52 E 8 13 29.88 1012 10 16.09344 0 0
5:55 pm 17:55 Sunny 86 29.8 66 18.8 52 52 ESE 7 11 29.88 1012 10 16.09344 0 0
6:15 pm 18:15 Sunny 84 29.1 65 18.6 53 53 ESE 8 13 29.88 1012 10 16.09344 0 0
6:35 pm 18:35 Sunny 84 28.9 66 18.8 54 54 E 7 11 29.88 1012 10 16.09344 0 0
6:55 pm 18:55 Sunny 83 28.5 67 19.2 57 57 ESE 6 9 29.88 1012 10 16.09344 0 0
7:15 pm 19:15 Sunny 83 28.2 66 18.7 56 56 SE 6 9 29.88 1012 10 16.09344 0 0
7:35 pm 19:35 Sunny 82 27.5 66 18.9 59 59 SE 5 7 29.88 1012 10 16.09344 0 0
7:55 pm 19:55 Sunny 79 26.2 67 19.7 68 68 SSE 6 9 29.91 1013 10 16.09344 0 0
8:15 pm 20:15 Sunny 77 25.2 67 19.6 71 71 SE 5 7 29.91 1013 10 16.09344 0 0
8:35 pm 20:35 Sunny 76 24.7 66 19 71 71 SE 6 9 29.91 1013 10 16.09344 0 0
8:55 pm 20:55 Clear 74 23.2 67 19.5 80 80 SSE 7 11 29.94 1014 10 16.09344 0 0
9:15 pm 21:15 Clear 73 22.9 67 19.7 82 82 SSE 5 7 29.94 1014 10 16.09344 0 0
9:35 pm 21:35 Clear 73 22.8 67 19.5 82 82 SE 5 7 29.97 1015 10 16.09344 0 0
9:55 pm 21:55 Clear 73 22.5 67 19.2 82 82 SE 5 7 29.97 1015 10 16.09344 0 0
10:15 pm 22:15 Clear 71 21.9 66 18.8 83 83 SSE 5 7 29.97 1015 10 16.09344 0 0
10:35 pm 22:35 Clear 71 21.6 66 18.7 84 84 Calm 30 1016 10 16.09344 0 0
10:55 pm 22:55 Clear 70 20.9 65 18.3 85 85 SE 3 6 29.97 1015 10 16.09344 0 0
11:15 pm 23:15 Clear 69 20.4 64 17.8 85 85 E 3 6 30 1016 10 16.09344 0 0
11:35 pm 23:35 Clear 66 19.1 64 17.5 91 91 E 5 7 30.03 1017 10 16.09344 0 0
11:55 pm 23:55 Clear 67 19.3 64 18 92 92 ENE 5 7 30.03 1017 10 16.09344 0 0

Powered by AerisWeather